Location: Hastringsfeld
(50.9620°N, 10.4787°E)
Time: 12:08:54
(UTC+00:00)

Cosmos 1500 Rocket - Pass Details

Date: 26 September 2023
Orbit: 600 x 629 km, 82.5° (Epoch: 29 November)

Event Time Altitude Azimuth Distance (km) Brightness Sun altitude
Rises 03:39:50 0° 350° (N) 2,918 7.1 -14.8°
Reaches altitude 10° 03:42:06 10° 351° (N) 2,003 6.3 -14.5°
Maximum altitude 03:46:32 84° 80° (E) 628 3.6 -13.8°
Drops below altitude 10° 03:50:55 10° 169° (S) 1,968 6.1 -13.1°
Sets 03:53:06 0° 170° (S) 2,863 6.9 -12.8°
